Location: East Irvine
(33.6759°N, 117.7598°W)
Time: 00:43:26
(UTC+00:00)

Tiangong - Pass Details

Date: 15 November 2025
Orbit: 385 x 397 km, 41.5° (Epoch: 07 December)

Event Time Altitude Azimuth Distance (km) Brightness Sun altitude
Rises 01:08:17 0° 297° (WNW) 2,282 2.5 -4.7°
Reaches altitude 10° 01:10:23 10° 298° (WNW) 1,421 1.4 -5.1°
Maximum altitude 01:13:35 83° 25° (NNE) 394 -2.1 -5.8°
Drops below altitude 10° 01:16:46 10° 115° (ESE) 1,405 0.3 -6.4°
Enters shadow 01:18:27 - 116° (ESE) 2,101 1.2 -6.7°
